Location: Camaret
(48.2753°N, 4.5961°W)
Time: 00:50:17
(UTC+00:00)

COSMOS 2455 - Pass Details

Date: 29 October 2020
Orbit: 899 x 911 km, 67.1° (Epoch: 26 November)

Event Time Altitude Azimuth Distance (km) Brightness Sun altitude
Rises 19:56:24 0° 325° (NW) 3,552 6.6 -29.2°
Reaches altitude 10° 19:59:29 10° 340° (NNW) 2,608 5.6 -29.7°
Enters shadow 20:02:51 22° 12° (NNE) 1,902 4.5 -30.2°
